GW4214 Weather Reports


Display with metric or nautical units.
time (UTC)temp
F
wind
direction
speed
MPH
gust
MPH
rain 1hr
in
rain 24hr
in
rain mn
in
humidity
%
barometer
mb
20260507054154 55 216 0.0 0.0 0.00 0.00 0.00 83 1024.0
20260507053652 55 218 0.0 0.0 0.00 0.00 0.00 83 1024.0
20260507053149 55 219 0.0 1.0 0.00 0.00 0.00 82 1024.0
20260507052648 55 244 1.0 1.0 0.00 0.00 0.00 82 1024.0
20260507052143 55 220 0.0 0.0 0.00 0.00 0.00 82 1024.0
20260507051641 55 235 2.0 2.0 0.00 0.00 0.00 82 1024.0
20260507051138 55 243 2.0 2.0 0.00 0.00 0.00 82 1024.0
20260507050635 55 218 0.0 1.0 0.00 0.00 0.00 82 1024.0
20260507050132 55 217 0.0 0.0 0.00 0.00 0.00 83 1024.0
20260507045629 55 241 1.0 1.0 0.00 0.00 0.00 82 1024.0
20260507045125 55 215 0.0 1.0 0.00 0.00 0.00 82 1024.0
20260507044622 55 234 1.0 1.0 0.00 0.00 0.00 83 1024.0
20260507044119 55 259 3.0 5.0 0.00 0.00 0.00 83 1024.0
20260507043615 55 224 0.0 1.0 0.00 0.00 0.00 83 1024.0
20260507043112 55 220 0.0 0.0 0.00 0.00 0.00 82 1023.7
20260507042608 55 223 2.0 2.0 0.00 0.00 0.00 82 1024.0
20260507042103 56 263 2.0 2.0 0.00 0.00 0.00 82 1023.7
20260507041600 56 220 1.0 1.0 0.00 0.00 0.00 82 1023.7
20260507041057 56 291 3.0 3.0 0.00 0.00 0.00 81 1023.3
20260507040554 56 278 2.0 2.0 0.00 0.00 0.00 81 1023.7
20260507040050 57 238 1.0 1.0 0.00 0.00 0.00 81 1023.7
20260507035546 57 233 1.0 1.0 0.00 0.00 0.00 81 1023.3
20260507035043 57 227 1.0 1.0 0.00 0.00 0.00 80 1023.3
20260507034539 57 282 3.0 3.0 0.00 0.00 0.00 80 1023.0
20260507034038 57 279 2.0 3.0 0.00 0.00 0.00 80 1023.3
20260507033535 58 240 1.0 2.0 0.00 0.00 0.00 80 1023.3
20260507033032 58 248 2.0 2.0 0.00 0.00 0.00 79 1023.0
20260507032529 58 326 3.0 3.0 0.00 0.00 0.00 79 1023.0
20260507032025 59 260 3.0 3.0 0.00 0.00 0.00 78 1023.0
20260507031521 59 304 4.0 5.0 0.00 0.00 0.00 78 1022.6
20260507031019 60 251 1.0 2.0 0.00 0.00 0.00 77 1023.0
20260507030516 60 235 2.0 2.0 0.00 0.00 0.00 77 1023.0
20260507030014 60 262 2.0 2.0 0.00 0.00 0.00 76 1022.6
20260507025511 61 254 2.0 2.0 0.00 0.00 0.00 75 1022.6
20260507025008 61 218 0.0 0.0 0.00 0.00 0.00 75 1022.6
20260507024506 61 302 5.0 6.0 0.00 0.00 0.00 74 1022.6
20260507024001 61 278 4.0 6.0 0.00 0.00 0.00 74 1022.6
20260507023458 62 280 7.0 10.0 0.00 0.00 0.00 73 1022.3
20260507022955 62 245 1.0 2.0 0.00 0.00 0.00 72 1022.6
20260507022452 63 244 4.0 5.0 0.00 0.00 0.00 72 1022.6
20260507021948 62 219 2.0 3.0 0.00 0.00 0.00 72 1022.6
20260507021443 63 267 5.0 6.0 0.00 0.00 0.00 72 1022.6
20260507020941 63 300 5.0 7.0 0.00 0.00 0.00 72 1022.6
20260507020437 63 267 7.0 11.0 0.00 0.00 0.00 71 1022.6
20260507015934 63 219 4.0 7.0 0.00 0.00 0.00 71 1022.6
20260507015433 63 297 5.0 6.0 0.00 0.00 0.00 71 1022.6
20260507014929 64 259 5.0 6.0 0.00 0.00 0.00 71 1022.6
20260507014426 64 287 3.0 5.0 0.00 0.00 0.00 70 1022.6
20260507013923 64 279 2.0 3.0 0.00 0.00 0.00 71 1022.6
20260507013420 64 28 3.0 3.0 0.00 0.00 0.00 70 1022.3
20260507012918 64 309 5.0 6.0 0.00 0.00 0.00 71 1022.6
20260507012414 64 198 5.0 8.0 0.00 0.00 0.00 70 1022.6
20260507011910 65 235 3.0 6.0 0.00 0.00 0.00 70 1022.6
20260507011407 64 284 4.0 6.0 0.00 0.00 0.00 70 1023.0
20260507010902 64 346 2.0 3.0 0.00 0.00 0.00 70 1022.6
20260507010357 65 320 3.0 5.0 0.00 0.00 0.00 70 1023.0
20260507005854 65 319 6.0 7.0 0.00 0.00 0.00 69 1022.6
20260507005351 65 339 8.0 10.0 0.00 0.00 0.00 69 1022.6
20260507004848 66 312 5.0 7.0 0.00 0.00 0.00 69 1022.6
20260507004345 66 281 7.0 10.0 0.00 0.00 0.00 69 1022.6
20260507003842 66 9 4.0 5.0 0.00 0.00 0.00 67 1022.6
20260507003337 66 17 4.0 5.0 0.00 0.00 0.00 68 1022.6
20260507002832 67 292 8.0 9.0 0.00 0.00 0.00 68 1022.6
20260507002328 67 314 4.0 5.0 0.00 0.00 0.00 67 1022.6
20260507001826 68 348 12.0 15.0 0.00 0.00 0.00 66 1022.3
20260507001323 68 221 3.0 5.0 0.00 0.00 0.00 66 1022.6
20260507000819 68 350 3.0 5.0 0.00 0.00 0.00 66 1022.3
20260507000315 69 251 4.0 6.0 0.00 0.00 0.00 65 1022.3
20260506235812 69 282 2.0 3.0 0.00 0.00 0.00 64 1022.3
20260506235308 69 207 3.0 6.0 0.00 0.00 0.00 66 1022.3
20260506234804 70 337 2.0 3.0 0.00 0.00 0.00 64 1022.3
20260506234302 69 340 6.0 7.0 0.00 0.00 0.00 65 1022.3
20260506233800 70 299 3.0 6.0 0.00 0.00 0.00 65 1022.6
20260506233256 70 302 3.0 5.0 0.00 0.00 0.00 65 1022.6
20260506232747 71 321 9.0 10.0 0.00 0.00 0.00 63 1022.3
20260506232242 70 219 4.0 6.0 0.00 0.00 0.00 63 1022.3
20260506231739 70 295 7.0 9.0 0.00 0.00 0.00 64 1022.6
20260506231237 70 270 4.0 8.0 0.00 0.00 0.00 65 1022.3
20260506230734 72 282 0.0 1.0 0.00 0.00 0.00 63 1022.6
20260506230230 73 323 5.0 7.0 0.00 0.00 0.00 61 1022.6
20260506225727 74 273 4.0 5.0 0.00 0.00 0.00 58 1022.3
20260506225224 72 12 1.0 2.0 0.00 0.00 0.00 61 1022.3
20260506224721 73 197 1.0 2.0 0.00 0.00 0.00 60 1022.3
20260506224218 72 249 2.0 3.0 0.00 0.00 0.00 60 1022.6
20260506223714 73 226 1.0 3.0 0.00 0.00 0.00 61 1022.6
20260506223210 75 220 1.0 2.0 0.00 0.00 0.00 56 1022.6
20260506222707 74 301 0.0 1.0 0.00 0.00 0.00 56 1022.6
20260506222202 74 248 0.0 1.0 0.00 0.00 0.00 57 1022.6
20260506221701 73 225 2.0 2.0 0.00 0.00 0.00 56 1022.6
20260506221158 72 287 5.0 6.0 0.00 0.00 0.00 58 1022.6
20260506220655 73 264 6.0 6.0 0.00 0.00 0.00 55 1023.0
20260506220150 72 227 1.0 2.0 0.00 0.00 0.00 58 1023.0
20260506215647 72 267 1.0 2.0 0.00 0.00 0.00 58 1022.6
20260506215142 73 339 3.0 3.0 0.00 0.00 0.00 58 1023.0
20260506214639 73 302 1.0 3.0 0.00 0.00 0.00 62 1023.0
20260506214137 73 218 0.0 0.0 0.00 0.00 0.00 62 1023.0
20260506213635 72 204 1.0 1.0 0.00 0.00 0.00 62 1023.0
20260506213132 70 246 3.0 3.0 0.00 0.00 0.00 65 1023.0
20260506212629 71 179 2.0 3.0 0.00 0.00 0.00 65 1023.0
20260506212124 68 243 0.0 1.0 0.00 0.00 0.00 66 1023.0
20260506211619 68 158 3.0 3.0 0.00 0.00 0.00 70 1023.0
20260506211117 68 235 1.0 2.0 0.00 0.00 0.00 68 1023.0
20260506210614 67 216 2.0 2.0 0.00 0.00 0.00 69 1023.0
20260506210110 68 184 3.0 3.0 0.00 0.00 0.00 70 1023.0
20260506205607 68 78 1.0 2.0 0.00 0.00 0.00 69 1023.0
20260506205102 69 202 3.0 5.0 0.00 0.00 0.00 67 1023.0
20260506204600 69 199 2.0 3.0 0.00 0.00 0.00 70 1023.0
20260506204057 69 218 0.0 1.0 0.00 0.00 0.00 68 1023.3
20260506203555 68 206 0.0 0.0 0.00 0.00 0.00 70 1023.3
20260506203051 67 194 0.0 1.0 0.00 0.00 0.00 71 1023.7
20260506202549 66 207 1.0 1.0 0.00 0.00 0.00 73 1023.7
20260506202045 67 280 5.0 7.0 0.00 0.00 0.00 71 1023.3
20260506201543 66 218 1.0 1.0 0.00 0.00 0.00 72 1023.7
20260506201039 66 217 2.0 3.0 0.00 0.00 0.00 75 1023.3
20260506200535 66 214 1.0 2.0 0.00 0.00 0.00 73 1023.7
20260506200032 66 208 2.0 3.0 0.00 0.00 0.00 74 1023.7
20260506195529 65 185 3.0 5.0 0.00 0.00 0.00 74 1023.3
20260506195025 65 197 4.0 6.0 0.00 0.00 0.00 75 1023.7
20260506194523 66 327 5.0 6.0 0.00 0.00 0.00 73 1023.7
20260506194020 65 184 3.0 3.0 0.00 0.00 0.00 74 1023.7
20260506193517 66 170 5.0 7.0 0.00 0.00 0.00 75 1023.3
20260506193014 67 250 3.0 3.0 0.00 0.00 0.00 71 1023.7
20260506192511 64 221 2.0 3.0 0.00 0.00 0.00 76 1023.7
20260506192007 63 170 4.0 5.0 0.00 0.00 0.00 78 1023.7
20260506191504 64 224 2.0 3.0 0.00 0.00 0.00 78 1023.7
20260506191000 64 167 3.0 3.0 0.00 0.00 0.00 76 1023.7
20260506190457 63 176 1.0 1.0 0.00 0.00 0.00 78 1024.0
20260506185953 63 180 3.0 5.0 0.00 0.00 0.00 79 1023.7
20260506185452 62 142 4.0 5.0 0.00 0.00 0.00 79 1023.7
20260506184948 62 203 3.0 5.0 0.00 0.00 0.00 78 1024.0
20260506184445 62 200 2.0 2.0 0.00 0.00 0.00 80 1023.7
20260506183942 61 203 0.0 0.0 0.00 0.00 0.00 81 1023.7
20260506183437 61 210 2.0 3.0 0.00 0.00 0.00 80 1023.7
20260506182935 61 197 0.0 1.0 0.00 0.00 0.00 81 1024.0
20260506182432 60 212 1.0 2.0 0.00 0.00 0.00 82 1024.0
20260506181929 61 184 2.0 3.0 0.00 0.00 0.00 82 1024.0
20260506181427 61 217 1.0 2.0 0.00 0.00 0.00 81 1024.0
20260506180923 60 204 0.0 0.0 0.00 0.00 0.00 83 1024.0
20260506180420 59 173 3.0 3.0 0.00 0.00 0.00 83 1024.0
20260506175917 59 168 3.0 3.0 0.00 0.00 0.00 85 1024.0
20260506175414 58 162 3.0 3.0 0.00 0.00 0.00 85 1023.7
20260506174910 58 197 2.0 2.0 0.00 0.00 0.00 86 1024.0
20260506174408 58 220 1.0 1.0 0.00 0.00 0.00 86 1023.7
20260506173905 58 207 1.0 2.0 0.00 0.00 0.00 86 1023.7
20260506173402 57 228 1.0 2.0 0.00 0.00 0.00 87 1024.0
20260506172859 57 282 4.0 5.0 0.00 0.00 0.00 86 1024.0
20260506172355 57 231 2.0 2.0 0.00 0.00 0.00 86 1024.0
20260506171853 57 222 1.0 1.0 0.00 0.00 0.00 86 1024.0
20260506171350 57 256 3.0 5.0 0.00 0.00 0.00 86 1024.0
20260506170848 57 245 2.0 2.0 0.00 0.00 0.00 86 1023.7
20260506170343 56 210 2.0 3.0 0.00 0.00 0.00 88 1024.0
20260506165837 57 227 3.0 5.0 0.00 0.00 0.00 86 1023.7
20260506165334 57 214 0.0 0.0 0.00 0.00 0.00 86 1024.0
20260506164830 57 221 0.0 1.0 0.00 0.00 0.00 87 1024.0
20260506164327 56 214 1.0 1.0 0.00 0.00 0.00 88 1023.7
20260506163825 56 201 0.0 1.0 0.00 0.00 0.00 88 1023.7
20260506163320 55 206 2.0 2.0 0.00 0.00 0.00 89 1024.0
20260506162815 55 197 3.0 5.0 0.00 0.00 0.00 90 1023.7
20260506162313 55 225 3.0 5.0 0.00 0.00 0.00 89 1024.0
20260506161810 55 205 0.0 0.0 0.00 0.00 0.00 89 1023.7
20260506161308 55 190 2.0 3.0 0.00 0.00 0.00 89 1023.7
20260506160800 55 203 2.0 2.0 0.00 0.00 0.00 89 1023.7
20260506160256 55 200 1.0 2.0 0.00 0.00 0.00 90 1023.3
20260506155755 54 182 3.0 3.0 0.00 0.00 0.00 90 1023.3
20260506155251 54 204 1.0 1.0 0.00 0.00 0.00 91 1023.3
20260506153403 54 220 0.0 1.0 0.00 0.00 0.00 91 1023.7
20260506152900 54 221 0.0 0.0 0.00 0.00 0.00 91 1024.0
20260506152358 54 259 1.0 2.0 0.00 0.00 0.00 91 1023.7
20260506151856 54 220 0.0 1.0 0.00 0.00 0.00 90 1023.7
20260506151353 54 199 1.0 1.0 0.00 0.00 0.00 90 1024.0
20260506150850 54 234 1.0 2.0 0.00 0.00 0.00 90 1024.0
20260506150346 54 231 4.0 7.0 0.00 0.00 0.00 89 1024.0
20260506145843 54 246 5.0 6.0 0.00 0.00 0.00 89 1024.0
20260506145340 54 232 5.0 7.0 0.00 0.00 0.00 89 1024.0
20260506144837 54 231 1.0 2.0 0.00 0.00 0.00 89 1023.7
20260506144333 54 211 0.0 0.0 0.00 0.00 0.00 89 1023.3
20260506143832 54 253 0.0 1.0 0.00 0.00 0.00 89 1023.3
20260506143329 54 222 1.0 1.0 0.00 0.00 0.00 90 1023.0
20260506142827 54 218 0.0 1.0 0.00 0.00 0.00 90 1023.0
20260506142325 54 203 0.0 1.0 0.00 0.00 0.00 91 1023.0
20260506141823 54 209 2.0 2.0 0.00 0.00 0.00 92 1023.0
20260506141321 53 199 2.0 2.0 0.00 0.00 0.00 93 1022.6
20260506140818 53 208 1.0 1.0 0.00 0.00 0.00 94 1022.6
20260506140315 53 205 2.0 2.0 0.00 0.00 0.00 94 1022.6
20260506135812 53 201 0.0 0.0 0.00 0.00 0.00 95 1022.6
20260506135308 53 186 1.0 1.0 0.00 0.00 0.00 95 1022.6
20260506134805 53 183 2.0 2.0 0.00 0.00 0.00 95 1022.6
20260506134301 53 192 1.0 2.0 0.00 0.00 0.00 95 1022.6
20260506133759 53 195 1.0 1.0 0.00 0.00 0.00 94 1023.0
20260506133255 53 193 1.0 1.0 0.00 0.00 0.00 94 1022.6
20260506132752 53 207 1.0 1.0 0.00 0.00 0.00 94 1022.6
20260506132249 53 195 1.0 1.0 0.00 0.00 0.00 93 1022.6
20260506131747 53 220 1.0 1.0 0.00 0.00 0.00 93 1022.3
20260506131243 53 208 0.0 0.0 0.00 0.00 0.00 92 1022.6
20260506130740 54 206 0.0 0.0 0.00 0.00 0.00 92 1022.3
20260506130237 54 202 2.0 2.0 0.00 0.00 0.00 92 1022.3
20260506125735 54 208 0.0 1.0 0.00 0.00 0.00 91 1022.3
20260506125233 54 218 1.0 1.0 0.00 0.00 0.00 91 1022.3
20260506124731 54 191 1.0 1.0 0.00 0.00 0.00 91 1022.0
20260506124228 54 220 2.0 2.0 0.00 0.00 0.00 91 1022.3
20260506123725 54 201 1.0 1.0 0.00 0.00 0.00 92 1022.3
20260506123224 54 215 0.0 1.0 0.00 0.00 0.00 93 1022.3
20260506122720 54 216 0.0 0.0 0.00 0.00 0.00 93 1022.6
20260506122218 54 207 0.0 0.0 0.00 0.00 0.00 93 1022.6
20260506121716 54 209 0.0 0.0 0.00 0.00 0.00 93 1022.3
20260506121212 54 203 1.0 1.0 0.00 0.00 0.00 93 1022.3
20260506120710 54 201 1.0 1.0 0.00 0.00 0.00 94 1022.0
20260506120207 54 207 1.0 1.0 0.00 0.00 0.00 94 1022.3
20260506115705 54 206 0.0 0.0 0.00 0.00 0.00 94 1022.3
20260506115203 53 220 0.0 0.0 0.00 0.00 0.00 94 1022.0
20260506114700 53 220 0.0 0.0 0.00 0.00 0.00 94 1022.3
20260506114158 53 220 0.0 0.0 0.00 0.00 0.00 94 1022.0
20260506113656 53 220 0.0 0.0 0.00 0.00 0.00 94 1022.0
20260506113153 53 221 0.0 0.0 0.00 0.00 0.00 94 1022.0
20260506112649 53 221 0.0 0.0 0.00 0.00 0.00 94 1021.6
20260506112147 53 220 0.0 0.0 0.00 0.00 0.00 94 1021.6
20260506111644 53 212 0.0 0.0 0.00 0.00 0.00 94 1022.0
20260506111142 53 224 0.0 0.0 0.00 0.00 0.00 95 1021.6
20260506110639 53 224 0.0 1.0 0.00 0.00 0.00 94 1021.6
20260506110136 53 283 1.0 2.0 0.00 0.00 0.00 94 1021.6
20260506105633 53 254 1.0 2.0 0.00 0.00 0.00 94 1021.3
20260506105130 53 217 0.0 1.0 0.00 0.00 0.00 94 1021.3
20260506104628 53 221 1.0 1.0 0.00 0.00 0.00 94 1021.3
20260506104125 53 215 1.0 1.0 0.00 0.00 0.00 94 1021.3
20260506103623 53 228 1.0 1.0 0.00 0.00 0.00 94 1021.3
20260506103119 53 272 1.0 1.0 0.00 0.00 0.00 94 1020.9
20260506102618 53 239 1.0 2.0 0.00 0.00 0.00 94 1021.3
20260506102115 53 222 1.0 1.0 0.00 0.00 0.00 94 1020.9
20260506101611 53 229 1.0 2.0 0.00 0.00 0.00 94 1020.9
20260506101108 53 240 2.0 2.0 0.00 0.00 0.00 94 1020.9
20260506100607 53 236 1.0 2.0 0.00 0.00 0.00 94 1020.9
20260506100104 53 212 0.0 0.0 0.00 0.00 0.00 94 1020.9
20260506095603 53 210 0.0 0.0 0.00 0.00 0.00 93 1020.6
20260506095059 53 215 0.0 0.0 0.00 0.00 0.00 93 1020.6
20260506094556 54 212 0.0 0.0 0.00 0.00 0.00 93 1020.6
20260506094054 54 205 0.0 1.0 0.00 0.00 0.00 93 1020.6
20260506093552 54 214 0.0 0.0 0.00 0.00 0.00 92 1020.6
20260506093049 54 205 0.0 1.0 0.00 0.00 0.00 92 1020.9
20260506092548 54 212 0.0 0.0 0.00 0.00 0.00 92 1020.6
20260506092044 54 215 0.0 1.0 0.00 0.00 0.00 92 1020.6
20260506091542 54 208 0.0 0.0 0.00 0.00 0.00 92 1020.6
20260506091039 54 210 0.0 0.0 0.00 0.00 0.00 92 1020.3
20260506090537 54 214 0.0 1.0 0.00 0.00 0.00 91 1020.3
20260506090033 55 218 2.0 2.0 0.00 0.00 0.00 91 1020.6
20260506085530 55 210 0.0 0.0 0.00 0.00 0.00 91 1020.6
20260506085026 55 213 0.0 0.0 0.00 0.00 0.00 91 1020.3
20260506084524 55 207 0.0 0.0 0.00 0.00 0.00 91 1020.3
20260506084019 55 207 0.0 0.0 0.00 0.00 0.00 90 1020.3
20260506083517 55 221 2.0 2.0 0.00 0.00 0.00 90 1020.3
20260506083014 55 212 2.0 2.0 0.00 0.00 0.00 90 1020.3
20260506082511 55 211 0.0 0.0 0.00 0.00 0.00 89 1020.3
20260506082006 56 212 1.0 1.0 0.00 0.00 0.00 89 1020.3
20260506081505 56 199 0.0 0.0 0.00 0.00 0.00 88 1019.9
20260506081002 56 212 1.0 2.0 0.00 0.00 0.00 88 1020.3
20260506080459 57 221 0.0 0.0 0.00 0.00 0.00 87 1020.3
20260506073443 58 207 0.0 0.0 0.00 0.00 0.00 85 1019.9
20260506072940 58 215 1.0 1.0 0.00 0.00 0.00 85 1019.9
20260506072437 58 216 1.0 2.0 0.00 0.00 0.00 85 1020.3
20260506071935 58 213 0.0 0.0 0.00 0.00 0.00 84 1020.3
20260506071433 58 211 0.0 0.0 0.00 0.00 0.00 84 1020.3
20260506070929 58 228 1.0 1.0 0.00 0.00 0.00 84 1019.9
20260506070426 59 219 1.0 1.0 0.00 0.00 0.00 84 1019.9
20260506062404 59 209 0.0 0.0 0.00 0.00 0.00 83 1019.6
20260506061900 59 217 0.0 0.0 0.00 0.00 0.00 83 1019.6
20260506061356 59 214 0.0 0.0 0.00 0.00 0.00 83 1019.6
20260506060854 59 219 0.0 0.0 0.00 0.00 0.00 83 1019.6
20260506060352 60 226 1.0 1.0 0.00 0.00 0.00 82 1019.6